This demonstration page uses our WeatherBlox Daily Observations layout. Learn more.

Left ArrowRight Arrow

39.08367, -84.50855

Hourly Observations for August 1, 2021

Temp ( °F °C ) Dew Point ( °F °C ) Humidity (%) Winds ( mph kmh ) Pressure ( in mb ) Visibility ( mi km ) Precip ( " mm )
12:53 am 00:53 Clear with Mist and Fog 62 16.7 58 14.4 86 86 N N/A 29.94 1014 6 10 N/A
1:53 am 01:53 Mostly Cloudy with Mist and Fog 61 16.1 58 14.4 90 90 N N/A 29.95 1014 6 10 N/A
2:53 am 02:53 Clear with Mist and Fog 60 15.6 58 14.4 93 93 N N/A 29.94 1014 6 10 N/A
3:53 am 03:53 Clear with Mist and Fog 58 14.4 57 13.9 97 97 N N/A 29.94 1014 5 8 N/A
4:53 am 04:53 Clear with Mist and Fog 59 15 58 14.4 96 96 N N/A 29.93 1014 5 8 N/A
5:53 am 05:53 Clear with Mist and Fog 59 15 57 13.9 93 93 N N/A 29.93 1014 5 8 N/A
6:39 am 06:39 Sunny with Mist and Fog 57 13.9 56 13.3 96 96 N N/A 29.95 1014 2 3 N/A
6:53 am 06:53 Sunny with Mist and Fog 58 14.4 57 13.9 97 97 N N/A 29.95 1014 5 8 N/A
7:53 am 07:53 Sunny with Mist and Fog 61 16.1 59 15 93 93 N N/A 29.96 1014 4 6 N/A
8:53 am 08:53 Hazy 67 19.4 61 16.1 81 81 N N/A 29.96 1015 6 10 N/A
9:53 am 09:53 Sunny 72 22.2 62 16.7 71 71 W 7 11 29.97 1015 8 13 N/A
10:53 am 10:53 Sunny 75 23.9 63 17.2 66 66 NW 7 11 29.96 1015 9 14 N/A
11:53 am 11:53 Sunny 79 26.1 64 17.8 60 60 WNW 10 17 29.96 1015 9 14 N/A
12:53 pm 12:53 Mostly Sunny 81 27.2 62 16.7 53 53 W 12 19 29.95 1014 9 14 N/A
1:53 pm 13:53 Mostly Cloudy 81 27.2 62 16.7 53 53 WNW 16 26 29.94 1014 8 13 N/A
2:53 pm 14:53 Mostly Cloudy 80 26.7 64 17.8 58 58 W 9 15 29.93 1014 8 13 N/A
3:29 pm 15:29 Mostly Cloudy with Heavy Rain 74 23.3 65 18.3 74 74 N 21 33 29.96 1015 2 2 0.01 0.25
3:45 pm 15:45 Cloudy with Light Rain 68 20 61 16.1 78 78 WNW 13 20 29.96 1015 3 5 0.14 3.56
3:53 pm 15:53 Cloudy with Light Rain 69 20.6 60 15.6 73 73 WNW 6 9 29.96 1015 4 6 0.18 4.57
4:53 pm 16:53 Hazy 76 24.4 66 18.9 72 72 WNW 8 13 29.96 1015 5 8 0.01 0.25
5:53 pm 17:53 Mostly Sunny 76 24.4 66 18.9 72 72 N N/A 29.96 1014 7 11 0.00 0.00
6:53 pm 18:53 Mostly Sunny 79 26.1 61 16.1 54 54 N 9 15 29.96 1015 9 14 N/A
7:53 pm 19:53 Mostly Sunny 77 25 54 12.2 45 45 NNW 10 17 29.97 1015 9 14 N/A
8:53 pm 20:53 Clear 73 22.8 54 12.2 51 51 VRB 6 9 29.98 1015 9 14 N/A
9:53 pm 21:53 Clear 70 21.1 54 12.2 57 57 N 6 9 30.01 1016 10 16 N/A
10:53 pm 22:53 Clear 63 17.2 58 14.4 84 84 N N/A 30.04 1017 9 14 N/A
11:53 pm 23:53 Clear 61 16.1 58 14.4 90 90 N N/A 30.05 1018 9 14 N/A

Powered by AerisWeather